Terug naar catalogus

STARLINK-31167

ActiefCommunicatieVLEO
NORAD 58744·PAYLOAD·🇺🇸 United States

Gelanceerd Jan 7, 2024 vanaf Cape Canaveral Space Force Station

Loading…

Volgende Passages (komende 24 uur)

TLE

VersSource: CelesTrak SupGP

Epoch: Sep 15, 2026, 02:00 UTC

1 58744C 24005S   26258.08381944  .00018107  00000+0  65566-3 0  2584
2 58744  43.0035  84.7107 0001572 272.4541 278.2376 15.27577290    13

Volg STARLINK-31167 in realtime met AllMySat

Download on the App Store